CW1950 Weather Reports


Display with metric or nautical units.
time (UTC)temp
F
wind
direction
speed
MPH
gust
MPH
rain 1hr
in
rain 24hr
in
rain mn
in
humidity
%
barometer
mb
20260506070503 59 320 1.0 2.0 0.00 0.00 0.00 83 1014.4
20260506060503 60 312 1.0 2.0 0.00 0.00 0.00 82 1014.1
20260506050502 60 347 2.0 3.0 0.00 0.00 0.00 80 1013.9
20260506040013 61 322 2.0 3.0 0.00 0.00 0.00 82 1013.2
20260506030503 62 354 2.0 3.0 0.00 0.00 0.00 76 1012.5
20260506030003 62 342 2.0 3.0 0.00 0.00 0.00 76 1012.5
20260506020503 62 336 2.0 3.0 0.00 0.00 0.00 73 1012.4
20260506020003 63 9 2.0 5.0 0.00 0.00 0.00 73 1012.3
20260506010003 64 15 1.0 6.0 0.00 0.00 0.00 72 1011.9
20260506000503 65 313 1.0 3.0 0.00 0.00 0.00 68 1011.6
20260506000003 65 345 2.0 6.0 0.00 0.00 0.00 68 1011.5
20260505230503 64 259 3.0 6.0 0.00 0.00 0.00 73 1011.8
20260505230004 64 262 2.0 7.0 0.00 0.00 0.00 73 1011.8
20260505220003 65 250 3.0 8.0 0.00 0.00 0.00 72 1012.2
20260505200503 65 257 2.0 6.0 0.00 0.00 0.00 69 1012.4
20260505200003 65 273 2.0 7.0 0.00 0.00 0.00 69 1012.5
20260505190004 64 270 3.0 8.0 0.00 0.00 0.00 72 1012.6
20260505180504 64 274 3.0 7.0 0.00 0.00 0.00 71 1012.3
20260505180003 63 209 3.0 8.0 0.00 0.00 0.00 71 1012.3
20260505170503 61 259 2.0 3.0 0.00 0.00 0.00 72 1012.3
20260505170004 60 346 1.0 5.0 0.00 0.00 0.00 72 1012.3
20260505160502 58 284 2.0 3.0 0.00 0.00 0.00 76 1011.9
20260505150503 56 327 2.0 3.0 0.00 0.00 0.00 76 1011.8
20260505140503 56 326 1.0 5.0 0.00 0.00 0.00 76 1011.4
20260505120503 56 332 2.0 5.0 0.00 0.00 0.00 73 1011.2
20260505120004 56 332 2.0 6.0 0.00 0.00 0.00 73 1011.2
20260505110503 56 326 1.0 3.0 0.00 0.00 0.00 75 1011.0
20260505100503 57 314 1.0 5.0 0.00 0.00 0.00 75 1011.0
20260505090503 57 324 2.0 6.0 0.00 0.00 0.00 75 1011.5
20260505090004 57 328 2.0 6.0 0.00 0.00 0.00 75 1011.5
20260505080503 58 327 2.0 3.0 0.00 0.00 0.00 76 1011.6
20260505080003 58 334 2.0 3.0 0.00 0.00 0.00 75 1011.6